Date,TemperatureHighF,TemperatureAvgF,TemperatureLowF,DewpointHighF,DewpointAvgF,DewpointLowF,HumidityHigh,HumidityAvg,HumidityLow,PressureMaxIn,PressureMinIn,WindSpeedMaxMPH,WindSpeedAvgMPH,GustSpeedMaxMPH,PrecipitationSumIn
2013-4-3,59.0,51.1,40.0,32.0,28.4,23.0,57,42,34,0.00,40.00,7,3,22,0.00
2013-4-4,53.0,41.8,29.0,31.0,26.4,18.0,87,56,39,0.00,40.00,8,6,18,0.00
2013-4-5,64.0,52.7,40.0,37.0,30.2,24.0,62,44,28,0.00,40.00,6,3,20,0.00
2013-4-6,63.0,51.9,41.0,37.0,31.5,29.0,67,47,29,0.00,40.00,5,2,17,0.00
2013-4-7,57.0,46.3,29.0,38.0,29.1,24.0,99,54,28,0.00,40.00,7,3,17,0.00
2013-4-8,29.0,23.3,17.0,28.0,17.3,11.0,100,79,52,0.00,40.00,4,3,19,0.00
2013-4-9,32.0,21.0,10.0,16.0,10.7,-2.0,93,67,25,0.00,40.00,5,2,11,0.13
2013-4-10,44.0,30.8,15.0,27.0,17.2,10.0,88,60,36,0.00,40.00,9,6,22,0.09
2013-4-11,54.0,43.2,34.0,37.0,29.3,23.0,85,61,33,0.00,40.00,7,4,25,0.02
2013-4-12,49.0,38.6,31.0,37.0,27.4,15.0,100,71,29,0.00,40.00,5,3,19,0.02
2013-4-13,50.0,39.4,31.0,39.0,32.0,21.0,93,76,56,0.00,40.00,8,4,20,0.03
2013-4-14,37.0,29.2,22.0,35.0,-9.4,-99.9,100,66,85,0.00,40.00,5,3,14,0.15
2013-4-15,33.0,26.2,21.0,26.0,23.6,21.0,100,90,72,0.00,40.00,4,3,15,0.14
2013-4-16,31.0,24.9,20.0,24.0,22.3,20.0,100,90,72,0.00,40.00,3,2,10,0.02
2013-4-17,35.0,26.6,23.0,24.0,22.0,17.0,100,84,64,0.00,40.00,4,2,15,0.18
2013-4-18,50.0,34.0,17.0,32.0,22.5,17.0,99,67,35,0.00,40.00,5,2,19,0.37
2013-4-19,48.0,39.0,30.0,36.0,32.8,30.0,100,80,59,0.00,40.00,9,4,19,0.01
2013-4-20,59.0,45.4,36.0,42.0,-2.6,-99.9,97,49,43,0.00,40.00,8,3,28,0.14
2013-4-21,39.0,30.5,27.0,37.0,28.0,22.0,100,90,78,0.00,40.00,5,2,16,0.13
2013-4-22,37.0,29.0,19.0,22.0,18.6,14.0,91,66,41,0.00,40.00,5,2,14,0.06
2013-4-23,52.0,35.9,22.0,26.0,19.1,13.0,89,56,21,0.00,40.00,7,3,25,0.01
2013-4-24,53.0,42.0,33.0,32.0,25.3,18.0,93,56,26,0.00,40.00,6,4,25,0.00
2013-4-25,65.0,51.6,37.0,30.0,25.5,23.0,66,40,21,0.00,40.00,8,4,22,0.00
2013-4-26,74.0,60.2,44.0,32.0,27.1,23.0,54,31,15,0.00,40.00,7,3,22,0.00
2013-4-27,76.0,63.4,50.0,34.0,28.0,23.0,53,29,14,0.00,40.00,10,4,27,0.00
2013-4-28,64.0,57.5,50.0,37.0,31.9,27.0,58,39,28,0.00,40.00,5,3,22,0.00
2013-4-29,64.0,53.0,41.0,36.0,27.9,17.0,58,40,18,0.00,40.00,11,4,31,0.00
2013-4-30,43.0,36.4,30.0,29.0,25.1,18.0,78,64,39,0.00,40.00,8,5,26,0.01
2013-5-1,48.0,35.5,22.0,24.0,17.6,13.0,86,53,24,0.00,40.00,4,2,13,0.01
2013-5-2,64.0,46.5,28.0,26.0,20.9,14.0,82,44,16,0.00,40.00,7,3,17,0.00
2013-5-3,64.0,50.6,39.0,45.0,29.6,17.0,94,48,25,0.00,40.00,7,4,20,0.00
2013-5-4,64.0,52.5,45.0,45.0,35.4,25.0,98,61,24,0.00,40.00,9,3,18,0.00
2013-5-5,66.0,54.0,39.0,27.0,21.8,19.0,51,31,17,0.00,40.00,8,3,22,0.00
2013-5-6,74.0,58.8,42.0,31.0,26.1,22.0,49,31,17,0.00,40.00,7,2,21,0.00
2013-5-7,80.0,64.6,49.0,37.0,30.0,24.0,46,30,14,0.00,40.00,5,2,18,0.00
2013-5-8,68.0,55.9,43.0,39.0,36.6,33.0,70,50,33,0.00,40.00,6,4,16,0.00
2013-5-9,72.0,58.3,43.0,40.0,36.6,33.0,72,47,26,0.00,40.00,7,3,18,0.00
2013-5-10,63.0,54.6,47.0,45.0,29.2,-99.9,78,45,22,0.00,40.00,7,3,21,0.00
2013-5-11,74.0,56.2,38.0,34.0,25.4,-99.9,59,34,19,0.00,40.00,7,3,17,0.00
2013-5-12,87.0,69.3,49.0,41.0,34.6,27.0,47,30,17,0.00,40.00,7,4,19,0.00
2013-5-13,89.0,75.2,64.0,52.0,43.1,39.0,60,33,20,0.00,40.00,6,3,29,0.00
2013-5-14,71.0,62.3,53.0,51.0,32.7,23.0,79,37,18,0.00,40.00,9,4,24,0.00
2013-5-15,72.0,61.8,50.0,30.0,26.8,23.0,44,27,19,0.00,40.00,5,2,24,0.00
2013-5-16,69.0,57.7,53.0,49.0,23.8,-99.9,79,42,29,0.00,40.00,5,2,14,0.00
2013-5-17,65.0,56.6,52.0,55.0,49.8,-99.9,100,84,56,0.00,40.00,4,1,12,0.30
2013-5-18,60.0,54.2,51.0,54.0,52.6,51.0,100,94,79,0.00,40.00,4,2,13,0.41
2013-5-19,61.0,53.9,51.0,55.0,52.6,50.0,99,96,78,0.00,40.00,4,3,13,0.45
2013-5-20,65.0,56.4,47.0,51.0,39.5,26.0,98,60,24,0.00,40.00,5,3,23,0.08
2013-5-21,66.0,56.5,45.0,43.0,34.2,28.0,69,45,25,0.00,40.00,8,4,21,0.00
2013-5-22,65.0,56.2,47.0,46.0,40.3,30.0,95,59,37,0.00,40.00,14,10,32,0.00
2013-5-23,67.0,58.5,52.0,46.0,42.1,30.0,74,55,37,0.00,40.00,15,11,36,0.00
2013-5-24,70.0,58.1,48.0,50.0,39.6,24.0,100,59,18,0.00,40.00,9,4,23,0.09
2013-5-25,75.0,62.3,50.0,44.0,38.5,32.0,60,42,30,0.00,40.00,5,3,15,0.04
2013-5-26,79.0,62.6,46.0,53.0,46.6,41.0,95,60,28,0.00,40.00,8,3,23,0.04
2013-5-27,70.0,57.4,50.0,53.0,28.8,-99.9,100,64,46,0.00,40.00,6,2,23,0.25
2013-5-28,69.0,57.9,45.0,53.0,46.3,41.0,85,67,40,0.00,40.00,4,2,12,0.01
2013-5-29,58.0,54.1,52.0,56.0,52.5,50.0,100,94,80,0.00,40.00,7,2,19,1.21
2013-5-30,54.0,51.6,49.0,53.0,7.7,-99.9,100,71,97,0.00,40.00,5,3,18,2.54
2013-5-31,52.0,48.4,46.0,50.0,47.7,46.0,100,97,88,0.00,40.00,8,6,30,1.84
2013-6-1,69.0,57.1,47.0,50.0,45.7,42.0,91,69,38,0.00,40.00,5,2,15,0.04
2013-6-2,70.0,60.8,53.0,53.0,47.1,43.0,96,63,39,0.00,40.00,11,5,23,0.10
2013-6-3,55.0,48.7,43.0,53.0,48.2,43.0,100,98,85,0.00,40.00,11,6,26,2.04
2013-6-4,57.0,47.1,42.0,44.0,-2.8,-99.9,100,53,55,0.00,40.00,5,3,15,0.36
2013-6-5,66.0,55.2,40.0,44.0,40.2,37.0,92,60,39,0.00,40.00,7,4,17,0.01
2013-6-6,74.0,61.9,49.0,50.0,45.0,42.0,81,57,35,0.00,40.00,6,3,16,0.00
2013-6-7,80.0,66.2,52.0,56.0,50.5,46.0,82,59,33,0.00,40.00,11,2,33,0.09
2013-6-8,71.0,64.0,55.0,50.0,46.1,42.0,76,54,37,0.00,40.00,11,4,35,0.12
2013-6-9,83.0,67.0,51.0,51.0,45.4,39.0,83,51,25,0.00,40.00,5,2,34,0.00
2013-6-10,76.0,64.2,49.0,51.0,47.2,42.0,99,59,32,0.00,40.00,6,3,13,0.00
2013-6-11,78.0,63.5,54.0,60.0,52.0,45.0,100,69,37,0.00,40.00,11,6,25,1.24
2013-6-12,69.0,59.9,51.0,58.0,11.1,-99.9,100,57,68,0.00,40.00,10,4,23,0.85
2013-6-13,72.0,63.0,54.0,60.0,56.0,51.0,99,80,62,0.00,40.00,8,4,23,0.05
2013-6-14,68.0,57.8,50.0,54.0,27.4,-99.9,100,58,35,0.00,40.00,8,4,25,0.79
2013-6-15,76.0,62.9,48.0,41.0,38.5,35.0,66,42,25,0.00,40.00,8,4,20,0.03
2013-6-16,75.0,63.8,50.0,49.0,45.2,40.0,79,52,34,0.00,40.00,5,2,17,0.00
2013-6-17,76.0,64.7,52.0,55.0,49.5,45.0,87,60,39,0.00,40.00,6,2,13,0.00
2013-6-18,85.0,71.4,58.0,61.0,55.4,51.0,80,60,37,0.00,40.00,10,5,24,0.00
2013-6-19,86.0,73.3,55.0,58.0,53.2,47.0,99,51,34,0.00,40.00,15,7,42,0.62
2013-6-20,72.0,58.9,49.0,55.0,47.7,35.0,100,73,26,0.00,40.00,7,3,20,0.63
2013-6-22,70.0,60.2,54.0,55.0,51.8,48.0,91,76,49,0.00,40.00,5,3,21,0.17
2013-6-23,75.0,62.8,48.0,51.0,47.0,41.0,98,62,31,0.00,40.00,4,2,14,0.07
2013-6-24,84.0,70.1,56.0,64.0,54.7,47.0,75,60,41,0.00,40.00,8,3,23,0.00
2013-6-25,79.0,68.6,58.0,60.0,53.4,48.0,96,63,35,0.00,40.00,8,3,27,0.13
2013-6-26,81.0,71.2,62.0,55.0,49.2,44.0,75,48,29,0.00,40.00,8,3,22,0.01
2013-6-27,81.0,70.5,59.0,52.0,47.7,44.0,71,46,29,0.00,40.00,7,3,21,0.00
2013-6-28,86.0,72.9,58.0,56.0,52.3,51.0,79,51,31,0.00,40.00,4,2,14,0.00
2013-6-29,87.0,74.0,61.0,58.0,55.5,54.0,80,55,34,0.00,40.00,5,3,15,0.00
2013-6-30,85.0,74.1,61.0,57.0,54.7,52.0,78,54,34,0.00,40.00,9,5,22,0.00
2013-7-1,89.0,76.8,64.0,58.0,54.8,50.0,69,49,29,0.00,40.00,4,2,14,0.00
2013-7-2,92.0,78.4,64.0,62.0,55.7,49.0,72,49,25,0.00,40.00,4,2,13,0.00
2013-7-3,95.0,80.1,67.0,63.0,55.4,51.0,69,45,23,0.00,40.00,6,3,18,0.01
2013-7-4,78.0,72.1,66.0,68.0,62.8,59.0,96,74,57,0.00,40.00,5,2,14,0.07
2013-7-5,83.0,72.3,65.0,63.0,58.9,53.0,84,65,36,0.00,40.00,9,3,30,0.39
2013-7-6,78.0,65.1,56.0,59.0,54.3,47.0,100,72,33,0.00,40.00,9,3,30,0.74
2013-7-7,82.0,70.7,58.0,61.0,55.1,49.0,88,60,43,0.00,40.00,12,4,28,0.00
2013-7-8,86.0,66.0,58.0,64.0,54.5,-99.9,98,72,37,0.00,40.00,7,2,26,0.32
2013-7-9,76.0,65.3,54.0,58.0,54.4,52.0,100,71,45,0.00,40.00,4,3,16,0.32
2013-7-10,90.0,75.3,57.0,61.0,53.4,50.0,83,51,26,0.00,40.00,6,3,14,0.00
2013-7-11,88.0,79.0,71.0,60.0,52.6,47.0,55,41,29,0.00,40.00,6,3,22,0.00
2013-7-12,87.0,75.2,62.0,58.0,46.9,41.0,88,39,21,0.00,40.00,6,3,20,0.32
2013-7-13,80.0,69.5,61.0,59.0,53.2,44.0,88,58,36,0.00,40.00,5,3,25,0.34
2013-7-14,78.0,66.3,53.0,53.0,50.0,47.0,87,58,35,0.00,40.00,10,4,25,0.00
2013-7-15,92.0,74.6,58.0,63.0,55.4,46.0,92,58,21,0.00,40.00,5,3,14,0.00
2013-7-16,76.0,70.9,64.0,57.0,51.3,48.0,71,51,40,0.00,40.00,5,3,17,0.00
2013-7-17,81.0,68.6,61.0,66.0,58.5,52.0,80,71,59,0.00,40.00,7,4,19,0.00
2013-7-18,87.0,75.7,62.0,61.0,50.5,40.0,83,47,20,0.00,40.00,8,3,24,0.00
2013-7-19,90.0,76.0,61.0,52.0,47.3,43.0,64,40,21,0.00,40.00,6,2,17,0.00
2013-7-20,88.0,73.3,58.0,58.0,52.1,47.0,87,51,27,0.00,40.00,4,2,14,0.00
2013-7-21,88.0,76.0,65.0,56.0,50.8,43.0,71,45,21,0.00,40.00,6,3,19,0.00
2013-7-22,91.0,74.4,57.0,57.0,51.5,39.0,79,49,20,0.00,40.00,7,4,19,0.00
2013-7-23,85.0,70.5,55.0,56.0,52.4,50.0,88,56,31,0.00,40.00,4,2,16,0.00
2013-7-24,91.0,74.4,60.0,60.0,52.4,42.0,85,53,18,0.00,40.00,9,3,25,0.00
2013-7-25,77.0,66.4,57.0,59.0,54.7,43.0,98,69,45,0.00,40.00,6,3,16,0.04
2013-7-26,76.0,64.7,53.0,49.0,44.9,42.0,74,50,36,0.00,40.00,9,6,20,0.01
2013-7-27,87.0,70.2,55.0,51.0,47.5,44.0,68,47,27,0.00,40.00,8,6,18,0.01
2013-7-28,77.0,68.1,60.0,56.0,53.1,51.0,78,59,47,0.00,40.00,5,2,13,0.00
2013-7-29,72.0,64.6,54.0,55.0,52.2,49.0,97,66,44,0.00,40.00,6,3,19,0.23
2013-7-30,75.0,65.4,57.0,56.0,51.9,49.0,84,63,43,0.00,40.00,4,2,14,0.05
2013-7-31,84.0,69.4,54.0,54.0,49.7,45.0,85,54,27,0.00,40.00,5,2,12,0.00
2013-8-1,83.0,68.8,60.0,55.0,48.3,45.0,82,51,26,0.00,40.00,8,4,23,0.10
2013-8-2,69.0,61.0,57.0,62.0,57.5,54.0,100,89,71,0.00,40.00,8,3,26,1.60
2013-8-3,74.0,62.0,53.0,64.0,57.2,53.0,100,86,58,0.00,40.00,6,2,32,1.54
2013-8-4,79.0,65.1,53.0,61.0,43.9,-99.9,100,70,42,0.00,40.00,5,2,12,1.35
2013-8-5,85.0,72.3,59.0,59.0,52.5,42.0,83,54,23,0.00,40.00,8,3,23,0.00
2013-8-6,80.0,68.6,57.0,55.0,50.6,45.0,83,56,31,0.00,40.00,7,3,22,0.00
2013-8-7,76.0,63.8,53.0,57.0,53.4,50.0,96,72,46,0.00,40.00,8,4,18,0.00
2013-8-8,79.0,65.0,51.0,53.0,49.7,44.0,89,61,38,0.00,40.00,6,3,16,0.00
2013-8-9,77.0,65.8,54.0,52.0,49.5,44.0,82,58,38,0.00,40.00,9,5,17,0.00
2013-8-10,83.0,70.3,57.0,60.0,55.4,50.0,77,61,39,0.00,40.00,9,2,16,0.00
2013-8-11,85.0,70.6,57.0,61.0,58.0,54.0,93,67,42,0.00,40.00,9,4,18,0.00
2013-8-12,86.0,73.2,62.0,60.0,57.2,49.0,87,60,36,0.00,40.00,9,4,24,0.00
2013-8-13,84.0,71.4,60.0,59.0,54.2,50.0,88,58,31,0.00,40.00,5,2,14,0.00
2013-8-14,82.0,70.0,62.0,61.0,55.5,-99.9,90,68,40,0.00,40.00,6,2,14,0.00
2013-8-15,88.0,59.6,56.0,58.0,31.9,-99.9,91,58,19,0.00,40.00,4,2,13,0.00
2013-8-16,96.0,78.2,64.0,55.0,45.4,-99.9,64,37,12,0.00,40.00,8,4,20,0.00
2013-8-17,90.0,74.6,65.0,52.0,45.9,-99.9,55,39,21,0.00,40.00,4,2,14,0.00
2013-8-18,89.0,75.5,64.0,57.0,50.5,46.0,77,44,26,0.00,40.00,6,2,14,0.01
2013-8-19,93.0,75.6,65.0,50.0,35.4,-99.9,54,31,15,0.00,40.00,5,3,14,0.01
2013-8-20,88.0,76.0,65.0,46.0,40.6,-99.9,45,30,20,0.00,40.00,6,2,15,0.00
2013-8-21,82.0,69.9,59.0,55.0,47.9,43.0,70,47,30,0.00,40.00,5,3,16,0.00
2013-8-22,89.0,73.8,56.0,57.0,51.3,48.0,76,48,27,0.00,40.00,7,4,16,0.00
2013-8-23,93.0,78.3,66.0,61.0,55.0,44.0,78,49,19,0.00,40.00,7,3,35,0.05
2013-8-24,87.0,74.6,69.0,56.0,49.9,-99.9,63,45,24,0.00,40.00,4,2,12,0.05
2013-8-25,93.0,77.9,67.0,53.0,45.6,39.0,56,35,16,0.00,40.00,6,2,17,0.00
2013-8-26,90.0,77.1,67.0,51.0,46.2,43.0,55,35,20,0.00,40.00,6,2,16,0.00
2013-8-27,87.0,72.6,61.0,54.0,50.0,46.0,71,46,27,0.00,40.00,5,2,15,0.00
2013-8-28,89.0,75.2,64.0,64.0,60.3,54.0,95,64,30,0.00,40.00,7,4,26,0.26
2013-8-29,90.0,74.4,61.0,62.0,54.1,45.0,95,57,23,0.00,40.00,4,2,11,0.11
2013-8-30,89.0,73.9,62.0,62.0,53.6,49.0,76,51,28,0.00,40.00,4,2,10,0.28
2013-8-31,79.0,68.6,61.0,52.0,41.5,-99.9,61,40,23,0.00,40.00,6,3,18,0.11
2013-9-1,86.0,69.1,51.0,52.0,45.7,39.0,82,49,20,0.00,40.00,7,3,20,0.00
2013-9-2,96.0,78.2,61.0,49.0,43.1,34.0,59,34,12,0.00,40.00,6,3,17,0.00
2013-9-3,91.0,80.5,72.0,52.0,46.5,40.0,44,31,22,0.00,40.00,4,2,12,0.00
2013-9-4,88.0,75.8,65.0,61.0,54.5,51.0,63,49,32,0.00,40.00,4,2,10,0.00
2013-9-5,97.0,79.8,63.0,62.0,56.8,50.0,87,51,22,0.00,40.00,5,2,22,0.00
2013-9-6,91.0,76.3,64.0,62.0,58.7,54.0,87,58,30,0.00,40.00,7,2,24,0.07
2013-9-7,72.0,66.2,64.0,65.0,59.5,-99.9,95,81,76,0.00,40.00,6,2,15,0.04
2013-9-8,76.0,63.9,57.0,62.0,59.5,57.0,100,88,59,0.00,40.00,3,2,24,0.44
2013-9-9,71.0,61.7,52.0,57.0,53.0,49.0,100,75,50,0.00,40.00,7,3,20,0.46
2013-9-10,83.0,69.2,55.0,54.0,48.7,41.0,90,54,24,0.00,40.00,5,2,14,0.00
2013-9-11,81.0,67.7,56.0,54.0,46.5,40.0,82,50,28,0.00,40.00,4,2,16,0.00
2013-9-12,82.0,67.5,53.0,50.0,45.7,41.0,67,48,28,0.00,40.00,8,3,21,0.00
2013-9-13,83.0,72.4,60.0,55.0,51.7,48.0,74,50,34,0.00,40.00,6,3,18,0.00
2013-9-14,77.0,67.3,60.0,55.0,49.5,-99.9,72,56,37,0.00,40.00,6,3,25,0.00
2013-9-15,75.0,62.5,49.0,57.0,46.9,40.0,80,58,42,0.00,40.00,9,4,22,0.00
2013-9-16,88.0,70.1,55.0,55.0,50.3,48.0,81,53,26,0.00,40.00,9,6,30,0.00
2013-9-17,73.0,66.2,56.0,54.0,48.1,45.0,81,54,38,0.00,40.00,4,2,16,0.01
2013-9-18,59.0,55.0,47.0,54.0,50.2,38.0,95,85,65,0.00,40.00,9,3,27,0.11
2013-9-19,62.0,51.2,43.0,42.0,39.5,36.0,97,67,39,0.00,40.00,9,4,27,0.02
2013-9-20,75.0,58.3,41.0,42.0,36.1,31.0,82,49,21,0.00,40.00,8,4,19,0.00
2013-9-21,89.0,67.6,49.0,40.0,33.0,-99.9,64,34,12,0.00,40.00,7,5,21,0.00
2013-9-22,73.0,64.7,59.0,41.0,37.0,32.0,49,36,26,0.00,40.00,4,2,16,0.00
2013-9-23,70.0,61.8,56.0,46.0,34.7,22.0,69,40,17,0.00,40.00,9,4,33,0.00
2013-9-24,73.0,60.5,49.0,47.0,32.2,29.0,69,36,21,0.00,40.00,8,3,26,0.05
2013-9-25,57.0,49.4,46.0,48.0,45.5,42.0,97,87,71,0.00,40.00,5,2,26,0.06
2013-9-26,46.0,43.3,41.0,43.0,40.7,38.0,100,91,76,0.00,40.00,5,3,19,0.40
2013-9-27,56.0,45.3,38.0,38.0,35.4,30.0,89,71,38,0.00,40.00,5,2,14,0.02
2013-9-28,67.0,52.7,41.0,38.0,32.6,-99.9,77,51,28,0.00,40.00,8,4,23,0.00
2013-9-29,73.0,59.5,51.0,41.0,34.9,27.0,66,41,26,0.00,40.00,10,6,28,0.00
2013-9-30,60.0,52.9,47.0,48.0,36.5,25.0,90,57,29,0.00,40.00,8,4,30,0.08
2013-10-1,61.0,55.7,53.0,25.0,23.7,22.0,31,29,24,0.00,40.00,5,2,16,0.00
2013-10-2,59.0,50.8,43.0,36.0,29.0,24.0,69,44,28,0.00,40.00,5,2,24,0.00
2013-10-3,48.0,40.6,37.0,36.0,32.5,28.0,92,74,46,0.00,40.00,4,2,16,0.07
2013-10-4,49.0,39.3,32.0,32.0,28.0,24.0,93,66,40,0.00,40.00,4,2,16,0.01
2013-10-5,61.0,44.2,29.0,31.0,27.5,25.0,90,57,25,0.00,40.00,6,2,18,0.00
2013-10-6,76.0,58.1,43.0,37.0,32.5,29.0,68,41,19,0.00,40.00,5,2,15,0.00
2013-10-7,78.0,59.9,44.0,36.0,30.4,22.0,68,38,13,0.00,40.00,6,3,16,0.00
2013-10-8,62.0,54.0,45.0,33.0,28.4,24.0,54,38,23,0.00,40.00,5,2,16,0.00
2013-10-9,59.0,47.7,36.0,38.0,31.8,26.0,85,56,31,0.00,40.00,7,3,15,0.00
2013-10-10,62.0,52.5,42.0,39.0,35.1,30.0,75,53,38,0.00,40.00,5,3,13,0.00
2013-10-11,53.0,45.3,39.0,39.0,33.4,25.0,81,65,33,0.00,40.00,7,4,23,0.00
2013-10-12,53.0,42.5,33.0,33.0,28.1,-99.9,91,62,35,0.00,40.00,4,2,10,0.00
2013-10-13,54.0,44.6,37.0,39.0,27.5,23.0,94,52,35,0.00,40.00,9,4,21,0.01
2013-10-14,53.0,43.4,36.0,38.0,28.6,20.0,96,61,28,0.00,40.00,5,2,20,0.01
2013-10-15,55.0,43.8,31.0,31.0,27.3,23.0,89,55,32,0.00,40.00,6,3,16,0.00
2013-10-16,53.0,39.5,31.0,37.0,30.7,25.0,100,74,36,0.00,40.00,6,3,20,0.21
2013-10-17,44.0,37.2,32.0,37.0,12.1,-99.9,100,74,60,0.00,40.00,5,2,18,0.21
2013-10-18,54.0,43.9,33.0,35.0,30.8,26.0,96,64,35,0.00,40.00,7,3,19,0.09
2013-10-19,62.0,51.0,42.0,33.0,28.3,-99.9,60,44,29,0.00,40.00,8,4,26,0.00
2013-10-20,51.0,43.8,40.0,41.0,36.8,31.0,89,77,46,0.00,40.00,7,2,27,0.04
2013-10-21,59.0,50.5,43.0,39.0,36.7,34.0,81,60,46,0.00,40.00,6,3,20,0.01
2013-10-22,65.0,53.6,45.0,39.0,37.0,33.0,76,55,33,0.00,40.00,4,2,11,0.00
2013-10-23,53.0,47.3,42.0,40.0,37.3,32.0,83,68,51,0.00,40.00,2,1,10,0.00
2013-10-24,58.0,45.7,35.0,40.0,35.7,31.0,89,69,48,0.00,40.00,5,2,13,0.00
2013-10-25,65.0,50.6,41.0,39.0,35.0,28.0,89,59,27,0.00,40.00,6,3,15,0.00
2013-10-26,69.0,49.5,35.0,33.0,25.7,-99.9,74,45,17,0.00,40.00,6,2,13,0.00
2013-10-27,53.0,44.5,33.0,31.0,25.1,17.0,78,48,29,0.00,40.00,9,5,23,0.00
2013-10-28,31.0,25.0,23.0,27.0,22.1,-99.9,98,94,86,0.00,40.00,8,6,23,0.00
2013-10-29,32.0,27.5,24.0,29.0,26.2,23.0,99,94,88,0.00,40.00,5,2,13,0.00
2013-10-30,47.0,33.3,22.0,33.0,22.0,-99.9,100,76,53,0.00,40.00,5,3,14,0.24
2013-10-31,50.0,43.5,38.0,37.0,31.1,28.0,77,62,46,0.00,40.00,8,4,23,0.24
2013-11-1,55.0,45.2,37.0,29.0,26.0,21.0,68,49,27,0.00,40.00,7,4,20,0.00
2013-11-2,54.0,40.8,29.0,33.0,27.3,-99.9,86,62,41,0.00,40.00,6,3,22,0.00
2013-11-3,48.0,41.5,29.0,35.0,24.8,17.0,83,53,31,0.00,40.00,10,5,29,0.00
2013-11-4,37.0,28.7,21.0,25.0,18.0,13.0,86,66,39,0.00,40.00,7,4,20,0.00
2013-11-5,42.0,30.1,21.0,23.0,16.2,10.0,92,61,27,0.00,40.00,5,3,12,0.00
2013-11-6,43.0,33.2,25.0,29.0,22.4,13.0,73,64,49,0.00,40.00,5,3,12,0.00
2013-11-7,48.0,36.7,23.0,37.0,25.4,22.0,96,67,40,0.00,40.00,8,4,19,0.07
2013-11-8,49.0,42.6,35.0,40.0,32.1,27.0,96,68,43,0.00,40.00,8,3,25,0.21
2013-11-9,48.0,35.6,29.0,32.0,25.6,-99.9,98,72,42,0.00,40.00,5,2,14,0.06
2013-11-10,36.0,28.3,20.0,27.0,24.0,18.0,97,85,65,0.00,40.00,4,2,11,0.00
2013-11-11,29.0,21.2,16.0,22.0,18.2,15.0,96,89,76,0.00,40.00,6,3,15,0.01
2013-11-12,57.0,39.5,23.0,36.0,29.4,21.0,94,70,41,0.00,40.00,11,6,25,0.01
2013-11-13,58.0,49.3,43.0,37.0,31.9,27.0,63,52,39,0.00,40.00,6,2,18,0.01
2013-11-14,49.0,41.3,35.0,27.0,26.1,24.0,65,55,39,0.00,40.00,5,2,17,0.00
2013-11-15,50.0,38.7,29.0,28.0,23.3,19.0,76,56,30,0.00,40.00,7,3,20,0.00
2013-11-16,42.0,36.3,29.0,35.0,29.9,-99.9,97,81,68,0.00,40.00,9,3,25,0.00
2013-11-17,36.0,27.7,20.0,23.0,19.6,18.0,91,72,51,0.00,40.00,9,3,22,0.00
2013-11-18,51.0,40.3,28.0,26.0,21.3,17.0,72,48,26,0.00,40.00,5,4,14,0.00
2013-11-19,63.0,46.0,16.0,27.0,22.2,11.0,84,42,23,0.00,40.00,10,5,27,0.00
2013-11-20,16.0,10.3,2.0,12.0,6.2,-1.0,93,84,76,0.00,40.00,5,2,15,0.00
2013-11-21,19.0,7.3,-6.0,7.0,1.4,-8.0,89,77,60,0.00,40.00,6,4,14,0.00
2013-11-22,30.0,15.5,7.0,12.0,6.0,2.0,90,67,43,0.00,40.00,6,2,12,0.00
2013-11-23,34.0,22.0,6.0,19.0,10.4,-99.9,89,66,48,0.00,40.00,8,5,19,0.02
2013-11-24,43.0,34.0,27.0,23.0,19.2,15.0,76,55,36,0.00,40.00,7,2,15,0.06
2013-11-25,38.0,30.0,24.0,24.0,19.9,16.0,89,67,42,0.00,40.00,4,1,10,0.01
2013-11-26,38.0,30.4,22.0,26.0,21.4,19.0,90,69,53,0.00,40.00,7,4,21,0.00
2013-11-27,42.0,35.4,26.0,28.0,24.5,22.0,89,65,49,0.00,40.00,5,2,15,0.00
2013-11-28,40.0,30.5,23.0,27.0,24.1,21.0,95,78,58,0.00,40.00,7,3,19,0.00
2013-11-29,54.0,39.2,29.0,27.0,24.2,22.0,82,58,28,0.00,40.00,4,2,12,0.00
2013-11-30,50.0,40.1,36.0,34.0,28.0,-99.9,78,65,45,0.00,40.00,4,2,10,0.00
2013-12-1,47.0,40.3,37.0,38.0,32.5,29.0,87,74,57,0.00,40.00,5,2,16,0.01
2013-12-2,43.0,32.8,15.0,36.0,24.3,-99.9,100,85,77,0.00,40.00,6,3,20,0.02
2013-12-3,14.0,9.8,4.0,13.0,8.3,1.0,96,94,91,0.00,40.00,5,4,22,0.02
2013-12-4,3.0,0.4,-6.0,1.0,-2.4,-11.0,91,88,82,0.00,40.00,6,3,17,0.00
2013-12-5,1.0,-8.6,-15.0,-8.0,-13.0,-18.0,86,81,66,0.00,40.00,4,2,10,0.00
2013-12-6,-7.0,-14.9,-21.0,-16.0,-19.9,-31.0,88,78,65,0.00,40.00,3,1,11,0.00
2013-12-7,-11.0,-19.5,-28.0,-19.0,-26.0,-99.9,82,75,67,0.00,40.00,4,1,10,0.00
2013-12-8,6.0,-7.5,-21.0,1.0,-11.9,-26.0,85,80,74,0.00,40.00,4,2,11,0.00
2013-12-9,25.0,9.6,-6.0,21.0,5.4,-10.0,97,83,71,0.00,40.00,8,4,29,0.00
2013-12-10,22.0,11.5,0.0,21.0,8.7,-3.0,97,88,74,0.00,40.00,4,2,19,0.00
2013-12-11,28.0,15.3,1.0,20.0,9.0,-2.0,92,77,55,0.00,40.00,5,2,12,0.00
2013-12-12,36.0,29.5,23.0,27.0,22.8,19.0,88,76,65,0.00,40.00,4,1,8,0.03
2013-12-13,34.0,20.5,13.0,27.0,17.6,12.0,98,89,72,0.00,40.00,3,1,7,0.01
2013-12-14,39.0,26.3,13.0,28.0,19.9,-99.9,100,81,60,0.00,40.00,4,2,12,0.09
2013-12-15,47.0,41.0,35.0,30.0,27.4,26.0,75,59,48,0.00,40.00,4,2,14,0.35
2013-12-16,41.0,31.9,24.0,30.0,26.7,22.0,95,81,59,0.00,40.00,4,2,14,0.04
2013-12-17,50.0,34.6,21.0,27.0,22.9,17.0,98,67,38,0.00,40.00,6,3,14,0.01
2013-12-18,46.0,34.5,15.0,28.0,22.8,12.0,99,67,34,0.00,40.00,5,2,15,0.00
2013-12-19,13.0,1.2,-5.0,12.0,-1.3,-7.0,95,89,83,0.00,40.00,4,2,13,0.00
2013-12-20,22.0,9.2,-3.0,12.0,4.0,-6.0,88,80,66,0.00,40.00,4,2,9,0.00
2013-12-21,18.0,9.9,2.0,17.0,6.2,-99.9,96,89,81,0.00,40.00,4,2,15,0.00
2013-12-22,9.0,1.9,-9.0,2.0,-1.2,-11.0,92,86,74,0.00,40.00,3,1,8,0.00
2013-12-23,32.0,8.3,-10.0,28.0,5.6,-13.0,96,88,82,0.00,40.00,7,4,16,0.00
2013-12-24,40.0,34.0,28.0,32.0,21.6,-99.9,98,74,56,0.00,40.00,6,3,21,0.36
2013-12-25,37.0,31.6,25.0,22.0,19.6,16.0,73,61,47,0.00,40.00,6,3,16,0.02
2013-12-26,47.0,38.9,30.0,32.0,25.8,17.0,72,60,48,0.00,40.00,5,3,17,0.01
2013-12-27,52.0,44.4,37.0,33.0,29.6,26.0,77,57,39,0.00,40.00,5,3,12,0.01
2013-12-28,45.0,15.6,2.0,26.0,5.4,-99.9,85,68,45,0.00,40.00,6,3,26,0.00
2013-12-29,37.0,17.5,6.0,27.0,13.2,2.0,97,83,61,0.00,40.00,6,2,17,0.00
2013-12-30,36.0,23.7,18.0,25.0,18.5,13.0,93,81,61,0.00,40.00,7,3,20,0.00
2013-12-31,18.0,12.4,8.0,16.0,9.9,5.0,94,90,81,0.00,40.00,5,2,13,0.00
2014-1-1,26.0,19.9,13.0,24.0,8.6,-99.9,100,87,88,0.00,40.00,6,2,12,0.00
2014-1-2,42.0,28.5,16.0,31.0,22.5,15.0,99,80,60,0.00,40.00,6,3,13,0.17